Location: Detroit
(42.3310°N, 83.0460°W)
Time: 10:23:57
(UTC-05:00)

ISS - Visible Passes

Search period start: 28 November 2021 00:00
Search period end: 08 December 2021 00:00
Orbit: 417 x 423 km, 51.6° (Epoch: 28 November)

Date Brightness Start Highest point End Pass type
(mag) Time Alt. Az. Time Alt. Az. Time Alt. Az.
28 Nov -1.7 18:05:08 10° NW 18:07:29 17° N 18:09:08 13° NNE visible
29 Nov -1.5 18:55:19 10° NW 18:56:50 17° NNW 18:56:50 17° NNW visible
30 Nov -1.8 18:08:03 10° NW 18:10:25 17° N 18:11:33 15° NNE visible
01 Dec -1.8 18:57:38 10° NW 18:59:18 21° NNW 18:59:18 21° NNW visible
02 Dec -2.2 18:10:29 10° NW 18:13:15 22° NNE 18:14:08 20° NE visible
02 Dec -0.4 19:47:02 10° NW 19:47:07 11° NW 19:47:07 11° NW visible
03 Dec -2.5 18:59:50 10° NW 19:02:03 35° NNW 19:02:03 35° NNW visible
04 Dec -3.1 18:12:39 10° NW 18:15:52 37° NNE 18:17:05 27° ENE visible
04 Dec -0.5 19:49:34 10° WNW 19:50:06 13° WNW 19:50:06 13° WNW visible
05 Dec -3.1 19:02:09 10° WNW 19:05:20 54° SW 19:05:20 54° SW visible
06 Dec -3.8 18:14:49 10° NW 18:18:14 89° NE 18:20:49 16° SE visible
06 Dec -0.3 19:53:23 10° WSW 19:53:52 11° WSW 19:53:52 11° WSW visible
07 Dec -3.6 17:27:33 10° NW 17:30:55 56° NNE 17:34:15 10° ESE visible
07 Dec -1.1 19:04:59 10° W 19:07:28 19° SW 19:09:45 11° S visible
